Phoenix, AZ

11:58 PM MST on September 24, 2017 (GMT -0700)
Phoenix Sky Harbor International

Weather History for KPHX - January, 2012

Change the Weather History Date:

Tuesday, January 24, 2012

  Actual Average Record
Temperature  
Mean Temperature 57 °F 57 °F  
Max Temperature 67 °F 68 °F 80 °F (1951)
Min Temperature 46 °F 46 °F 24 °F (1937)
Degree Days  
Heating Degree Days 8 8  
Month to date heating degree days 160 215  
Since 1 July heating degree days 588 616  
Cooling Degree Days 0 0  
Month to date cooling degree days 3 0  
Year to date cooling degree days 3 0  
Growing Degree Days 6 (Base 50)    
Moisture  
Dew Point 33 °F    
Average Humidity 48    
Maximum Humidity 76    
Minimum Humidity 20    
Precipitation  
Precipitation 0.00 in 0.02 in 0.51 in (1941)
Month to date precipitation T 0.71  
Year to date precipitation T 0.71  
Snow  
Snow 0.00 in - - ()
Month to date snowfall 0.0  
Year to date snowfall 0.0  
Since 1 July snowfall 0.0  
Snow Depth 0.00 in    
Sea Level Pressure  
Sea Level Pressure 29.98 in    
Wind  
Wind Speed 6 mph (West)    
Max Wind Speed 14 mph    
Max Gust Speed 22 mph    
Visibility 10 miles    
Events      
T = Trace of Precipitation, MM = Missing Value Source: NWS Daily Summary

Daily Weather History Graph

Daily Weather History Graph

Search for Another Location

Airport or City:

Trip Planner

Search our weather history database for the weather conditions in past years. The results will help you decide how hot, cold, wet, or windy it might be!

Date:

Astronomy

Jan. 24, 2012 Rise Set
Actual Time 7:29 AM MST 5:51 PM MST
Civil Twilight 7:02 AM MST 6:17 PM MST
Nautical Twilight 6:32 AM MST 6:48 PM MST
Astronomical Twilight 6:02 AM MST 7:17 PM MST
Moon 8:06 AM MST (1/24) 7:38 PM MST (1/24)
Length of Visible Light 11h 15m
Length of Day
10h 22m
Waxing Crescent, 3% of the Moon is Illuminated
Jan 24
Waxing Crescent
Jan 30
First Quarter
Feb 7
Full
Feb 14
Last Quarter
Feb 21
New

Hourly Weather History & Observations

Time (MST) Temp. Windchill Dew Point Humidity Pressure Visibility Wind Dir Wind Speed Gust Speed Precip Events Conditions
12:51 AM 54.0 °F - 36.0 °F 51% 29.85 in 10.0 mi WNW 6.9 mph - N/A   Mostly Cloudy
1:51 AM 53.1 °F - 36.0 °F 52% 29.86 in 10.0 mi West 3.5 mph - N/A   Mostly Cloudy
2:51 AM 53.1 °F - 37.9 °F 57% 29.87 in 10.0 mi West 6.9 mph - N/A   Overcast
3:51 AM 51.1 °F - 39.0 °F 63% 29.87 in 10.0 mi WSW 8.1 mph - N/A   Overcast
4:51 AM 50.0 °F - 39.0 °F 66% 29.89 in 10.0 mi West 8.1 mph - N/A   Mostly Cloudy
5:51 AM 46.9 °F - 39.0 °F 74% 29.90 in 10.0 mi SW 4.6 mph - N/A   Partly Cloudy
6:51 AM 46.9 °F - 37.9 °F 71% 29.92 in 10.0 mi WSW 5.8 mph - N/A   Partly Cloudy
7:51 AM 46.0 °F 42.5 °F 37.9 °F 73% 29.95 in 10.0 mi WSW 6.9 mph - N/A   Partly Cloudy
8:51 AM 50.0 °F - 37.9 °F 63% 29.97 in 10.0 mi WSW 9.2 mph - N/A   Partly Cloudy
9:51 AM 53.1 °F - 37.0 °F 55% 29.98 in 10.0 mi WSW 8.1 mph - N/A   Scattered Clouds
10:51 AM 55.9 °F - 34.0 °F 44% 30.02 in 10.0 mi West 6.9 mph - N/A   Scattered Clouds
11:51 AM 60.1 °F - 36.0 °F 41% 30.01 in 10.0 mi SW 5.8 mph - N/A   Partly Cloudy
12:51 PM 62.1 °F - 34.0 °F 35% 29.99 in 10.0 mi Calm Calm - N/A   Scattered Clouds
1:51 PM 66.0 °F - 35.1 °F 32% 29.98 in 10.0 mi South 5.8 mph - N/A   Scattered Clouds
2:51 PM 64.9 °F - 32.0 °F 29% 29.97 in 10.0 mi Calm Calm - N/A   Scattered Clouds
3:51 PM 66.9 °F - 30.9 °F 26% 29.98 in 10.0 mi Calm Calm - N/A   Scattered Clouds
4:51 PM 66.9 °F - 30.0 °F 25% 29.99 in 10.0 mi NW 5.8 mph - N/A   Scattered Clouds
5:51 PM 66.0 °F - 28.9 °F 25% 30.01 in 10.0 mi WNW 5.8 mph - N/A   Scattered Clouds
6:51 PM 64.9 °F - 28.9 °F 26% 30.03 in 10.0 mi WNW 4.6 mph - N/A   Scattered Clouds
7:51 PM 63.0 °F - 30.0 °F 29% 30.05 in 10.0 mi WNW 4.6 mph - N/A   Scattered Clouds
8:51 PM 61.0 °F - 28.9 °F 30% 30.07 in 10.0 mi NNW 9.2 mph 19.6 mph N/A   Partly Cloudy
9:51 PM 61.0 °F - 19.9 °F 21% 30.10 in 10.0 mi North 12.7 mph - N/A   Partly Cloudy
10:51 PM 57.9 °F - 21.0 °F 24% 30.13 in 10.0 mi NNW 5.8 mph - N/A   Partly Cloudy
11:51 PM 57.9 °F - 21.9 °F 25% 30.12 in 10.0 mi NW 9.2 mph - N/A   Partly Cloudy